FW8346 Weather Reports


Display with metric or nautical units.
time (UTC)temp
F
wind
direction
speed
MPH
gust
MPH
rain 1hr
in
rain 24hr
in
rain mn
in
humidity
%
barometer
mb
20260903190649 84 108 5.0 9.0 0.00 0.00 0.00 73 1009.2
20260903190413 83 108 6.0 10.0 0.00 0.00 0.00 73 1009.2
20260903185914 83 77 5.0 10.0 0.00 0.00 0.00 72 1009.3
20260903185142 83 119 5.0 10.0 0.00 0.00 0.00 73 1009.4
20260903184640 83 85 4.0 10.0 0.00 0.00 0.00 75 1009.5
20260903184139 83 98 4.0 11.0 0.00 0.00 0.00 72 1009.5
20260903183642 82 105 4.0 11.0 0.00 0.00 0.00 74 1009.8
20260903183140 82 87 4.0 9.0 0.00 0.00 0.00 75 1009.8
20260903182641 82 102 4.0 9.0 0.00 0.00 0.00 74 1009.9
20260903182413 81 122 5.0 11.0 0.00 0.00 0.00 74 1009.9
20260903181641 81 101 5.0 11.0 0.00 0.00 0.00 74 1010.0
20260903181141 81 75 5.0 9.0 0.00 0.00 0.00 75 1010.1
20260903180641 80 193 5.0 10.0 0.00 0.00 0.00 75 1010.3
20260903180139 80 94 6.0 10.0 0.00 0.00 0.00 76 1010.4
20260903175912 80 55 6.0 10.0 0.00 0.00 0.00 77 1010.2
20260903175139 79 96 6.0 9.0 0.00 0.00 0.00 77 1010.3
20260903174641 79 74 5.0 9.0 0.00 0.00 0.00 77 1010.3
20260903174140 79 134 4.0 9.0 0.00 0.00 0.00 77 1010.4
20260903173639 78 96 5.0 9.0 0.00 0.00 0.00 79 1010.4
20260903173144 78 109 5.0 11.0 0.00 0.00 0.00 78 1010.6
20260903173139 78 80 6.0 11.0 0.00 0.00 0.00 78 1010.5
20260903172140 78 65 4.0 8.0 0.00 0.00 0.00 77 1010.7
20260903171639 78 76 4.0 8.0 0.00 0.00 0.00 80 1010.7
20260903171140 77 116 4.0 9.0 0.00 0.00 0.00 79 1010.8
20260903170639 77 94 4.0 9.0 0.00 0.00 0.00 79 1010.9
20260903170137 77 139 5.0 10.0 0.00 0.00 0.00 80 1011.0
20260903165638 76 108 6.0 10.0 0.00 0.00 0.00 79 1011.1
20260903165135 76 79 6.0 9.0 0.00 0.00 0.00 80 1011.2
20260903164636 76 96 5.0 9.0 0.00 0.00 0.00 79 1011.2
20260903164135 76 82 5.0 9.0 0.00 0.00 0.00 81 1011.2
20260903163635 76 82 5.0 8.0 0.00 0.00 0.00 80 1011.3
20260903163136 76 94 4.0 9.0 0.00 0.00 0.00 80 1011.3
20260903162636 76 78 5.0 9.0 0.00 0.00 0.00 80 1011.3
20260903162131 76 72 4.0 8.0 0.00 0.00 0.00 79 1011.3
20260903161629 75 124 5.0 8.0 0.00 0.00 0.00 81 1011.3
20260903161127 75 82 6.0 10.0 0.00 0.00 0.00 80 1011.2
20260903160627 75 79 5.0 10.0 0.00 0.00 0.00 80 1011.2
20260903160128 75 82 4.0 9.0 0.00 0.00 0.00 79 1011.3
20260903155628 74 98 4.0 9.0 0.00 0.00 0.00 79 1011.3
20260903155128 74 128 4.0 7.0 0.00 0.00 0.00 80 1011.3
20260903154857 74 85 5.0 8.0 0.00 0.00 0.00 80 1011.5
20260903154126 74 94 5.0 8.0 0.00 0.00 0.00 79 1011.4
20260903153858 74 90 6.0 10.0 0.00 0.00 0.00 79 1011.4
20260903153123 74 99 6.0 10.0 0.00 0.00 0.00 80 1011.3
20260903152624 74 91 5.0 10.0 0.00 0.00 0.00 78 1011.4
20260903152357 74 148 5.0 9.0 0.00 0.00 0.00 78 1011.3
20260903151622 74 58 5.0 9.0 0.00 0.00 0.00 81 1011.1
20260903151122 74 87 5.0 8.0 0.00 0.00 0.00 80 1011.2
20260903150623 73 87 5.0 9.0 0.00 0.00 0.00 81 1011.1
20260903150352 73 84 5.0 9.0 0.00 0.00 0.00 80 1010.9
20260903145623 73 77 4.0 9.0 0.00 0.00 0.00 79 1011.2
20260903145617 73 109 4.0 8.0 0.00 0.00 0.00 78 1011.2
20260903144843 73 93 5.0 8.0 0.00 0.00 0.00 78 1011.2
20260903144104 72 94 4.0 8.0 0.00 0.00 0.00 78 1011.2
20260903143558 72 91 4.0 10.0 0.00 0.00 0.00 76 1011.3
20260903143052 72 148 4.0 10.0 0.00 0.00 0.00 77 1011.4
20260903142546 72 86 5.0 8.0 0.00 0.00 0.00 79 1011.4
20260903142039 71 101 5.0 8.0 0.00 0.00 0.00 78 1011.4
20260903141534 71 73 4.0 8.0 0.00 0.00 0.00 78 1011.4
20260903141029 70 91 4.0 8.0 0.00 0.00 0.00 79 1011.5
20260903141023 70 79 4.0 8.0 0.00 0.00 0.00 78 1011.6
20260903140016 70 87 5.0 9.0 0.00 0.00 0.00 79 1011.6
20260903135740 69 99 5.0 9.0 0.00 0.00 0.00 80 1011.6
20260903135004 69 65 6.0 10.0 0.00 0.00 0.00 81 1011.7
20260903134458 68 83 6.0 11.0 0.00 0.00 0.00 80 1011.7
20260903133952 68 70 6.0 11.0 0.00 0.00 0.00 81 1011.8
20260903133446 68 67 5.0 8.0 0.00 0.00 0.00 80 1011.8
20260903133211 68 56 5.0 8.0 0.00 0.00 0.00 82 1012.0
20260903132434 67 68 5.0 8.0 0.00 0.00 0.00 82 1012.0
20260903131928 67 75 4.0 8.0 0.00 0.00 0.00 81 1012.0
20260903131422 67 49 4.0 6.0 0.00 0.00 0.00 82 1012.0
20260903130916 66 67 4.0 6.0 0.00 0.00 0.00 82 1012.1
20260903130641 66 86 4.0 6.0 0.00 0.00 0.00 83 1012.0
20260903130134 66 59 3.0 6.0 0.00 0.00 0.00 84 1012.0
20260903125629 65 65 4.0 6.0 0.00 0.00 0.00 84 1012.0
20260903124852 65 54 5.0 7.0 0.00 0.00 0.00 84 1012.0
20260903124346 65 53 5.0 7.0 0.00 0.00 0.00 85 1012.1
20260903123840 65 35 4.0 7.0 0.00 0.00 0.00 84 1012.0
20260903123333 65 52 4.0 6.0 0.00 0.00 0.00 85 1012.0
20260903122829 65 20 4.0 7.0 0.00 0.00 0.00 84 1011.9
20260903122322 66 34 3.0 7.0 0.00 0.00 0.00 83 1011.9
20260903121815 66 55 3.0 6.0 0.00 0.00 0.00 82 1011.9
20260903121310 66 23 3.0 5.0 0.00 0.00 0.00 82 1011.9
20260903121034 66 41 2.0 4.0 0.00 0.00 0.00 82 1011.9
20260903120257 66 59 2.0 4.0 0.00 0.00 0.00 82 1011.9
20260903115752 66 75 2.0 4.0 0.00 0.00 0.00 82 1011.9
20260903115245 66 76 2.0 4.0 0.00 0.00 0.00 82 1011.8
20260903115010 65 77 1.0 4.0 0.00 0.00 0.00 83 1011.8
20260903114234 65 99 1.0 4.0 0.00 0.00 0.00 82 1011.8
20260903113728 66 116 2.0 4.0 0.00 0.00 0.00 82 1011.9
20260903113222 66 58 2.0 4.0 0.00 0.00 0.00 82 1011.8
20260903112948 66 44 2.0 4.0 0.00 0.00 0.00 81 1011.7
20260903112212 66 64 3.0 5.0 0.00 0.00 0.00 82 1011.7
20260903112207 66 51 4.0 5.0 0.00 0.00 0.00 80 1011.6
20260903111158 66 56 4.0 5.0 0.00 0.00 0.00 80 1011.6
20260903110652 66 63 4.0 7.0 0.00 0.00 0.00 80 1011.6
20260903110146 66 60 4.0 6.0 0.00 0.00 0.00 80 1011.4
20260903105640 66 79 3.0 5.0 0.00 0.00 0.00 80 1011.5
20260903105406 67 80 4.0 6.0 0.00 0.00 0.00 80 1011.4
20260903104634 67 77 4.0 7.0 0.00 0.00 0.00 79 1011.5
20260903104131 67 61 4.0 7.0 0.00 0.00 0.00 79 1011.5
20260903103628 67 67 4.0 7.0 0.00 0.00 0.00 79 1011.5
20260903103129 67 57 3.0 7.0 0.00 0.00 0.00 79 1011.6
20260903102630 67 70 3.0 5.0 0.00 0.00 0.00 79 1011.7
20260903102128 67 64 3.0 5.0 0.00 0.00 0.00 78 1011.7
20260903101630 67 75 4.0 5.0 0.00 0.00 0.00 79 1011.6
20260903101358 67 71 4.0 6.0 0.00 0.00 0.00 79 1011.3
20260903100626 67 83 4.0 6.0 0.00 0.00 0.00 79 1011.2
20260903100359 67 57 4.0 6.0 0.00 0.00 0.00 79 1011.3
20260903095625 67 58 4.0 6.0 0.00 0.00 0.00 81 1011.3
20260903095124 67 63 3.0 6.0 0.00 0.00 0.00 80 1011.4
20260903094626 66 79 3.0 5.0 0.00 0.00 0.00 80 1011.4
20260903094124 66 70 3.0 4.0 0.00 0.00 0.00 80 1011.5
20260903093622 67 81 3.0 4.0 0.00 0.00 0.00 81 1011.6
20260903093122 67 98 3.0 5.0 0.00 0.00 0.00 80 1011.4
20260903092622 67 91 3.0 5.0 0.00 0.00 0.00 80 1011.4
20260903092120 67 76 3.0 5.0 0.00 0.00 0.00 80 1011.5
20260903091622 67 87 3.0 5.0 0.00 0.00 0.00 79 1011.5
20260903091120 67 90 3.0 6.0 0.00 0.00 0.00 79 1011.6
20260903090616 67 74 3.0 6.0 0.00 0.00 0.00 78 1011.6
20260903090116 67 80 4.0 6.0 0.00 0.00 0.00 79 1011.6
20260903085617 67 72 4.0 6.0 0.00 0.00 0.00 78 1011.6
20260903085118 68 59 4.0 6.0 0.00 0.00 0.00 78 1011.6
20260903084616 68 63 4.0 6.0 0.00 0.00 0.00 78 1011.7
20260903084115 68 74 4.0 5.0 0.00 0.00 0.00 78 1011.6
20260903083614 68 61 4.0 6.0 0.00 0.00 0.00 77 1011.8
20260903083110 68 58 4.0 6.0 0.00 0.00 0.00 78 1011.7
20260903082611 68 71 4.0 5.0 0.00 0.00 0.00 78 1011.7
20260903082112 68 66 4.0 5.0 0.00 0.00 0.00 79 1011.7
20260903081839 68 62 4.0 5.0 0.00 0.00 0.00 80 1011.7
20260903081109 67 76 3.0 5.0 0.00 0.00 0.00 79 1011.7
20260903080610 67 75 3.0 5.0 0.00 0.00 0.00 80 1011.7
20260903080104 67 79 3.0 5.0 0.00 0.00 0.00 79 1011.7
20260903075605 67 72 3.0 5.0 0.00 0.00 0.00 80 1011.6
20260903075105 67 80 2.0 5.0 0.00 0.00 0.00 79 1011.7
20260903074605 67 69 2.0 4.0 0.00 0.00 0.00 80 1011.7
20260903074106 67 96 3.0 5.0 0.00 0.00 0.00 80 1011.7
20260903073836 67 56 3.0 5.0 0.00 0.00 0.00 81 1011.7
20260903073111 67 75 3.0 5.0 0.00 0.00 0.00 81 1011.8
20260903072605 67 76 3.0 5.0 0.00 0.00 0.00 81 1011.7
20260903072106 67 100 4.0 6.0 0.00 0.00 0.00 82 1011.8
20260903071606 67 78 4.0 6.0 0.00 0.00 0.00 81 1011.8
20260903071104 67 72 3.0 6.0 0.00 0.00 0.00 83 1011.9
20260903070837 67 80 3.0 6.0 0.00 0.00 0.00 82 1012.0
20260903070105 67 96 3.0 5.0 0.00 0.00 0.00 82 1012.1
20260903065605 67 89 3.0 5.0 0.00 0.00 0.00 83 1012.0
20260903065111 67 71 3.0 4.0 0.00 0.00 0.00 82 1012.2
20260903065105 67 85 3.0 5.0 0.00 0.00 0.00 83 1012.0
20260903064336 68 75 3.0 4.0 0.00 0.00 0.00 81 1012.2
20260903063605 68 78 3.0 5.0 0.00 0.00 0.00 82 1012.2
20260903063106 68 73 3.0 5.0 0.00 0.00 0.00 81 1012.2
20260903062604 68 82 3.0 5.0 0.00 0.00 0.00 82 1012.2
20260903062104 68 82 3.0 5.0 0.00 0.00 0.00 81 1012.3
20260903061838 69 68 3.0 5.0 0.00 0.00 0.00 81 1012.3
20260903061104 69 78 3.0 5.0 0.00 0.00 0.00 81 1012.4
20260903060602 69 86 3.0 5.0 0.00 0.00 0.00 81 1012.4
20260903055601 69 62 3.0 5.0 0.00 0.00 0.00 80 1012.3
20260903055100 69 72 3.0 4.0 0.00 0.00 0.00 81 1012.3
20260903054559 69 88 3.0 4.0 0.00 0.00 0.00 81 1012.3
20260903054100 69 85 3.0 5.0 0.00 0.00 0.00 81 1012.3
20260903053559 69 76 3.0 5.0 0.00 0.00 0.00 81 1012.3
20260903053054 69 90 2.0 5.0 0.00 0.00 0.00 81 1012.4
20260903052549 69 73 2.0 4.0 0.00 0.00 0.00 81 1012.4
20260903052048 69 67 1.0 3.0 0.00 0.00 0.00 81 1012.4
20260903051550 69 82 1.0 3.0 0.00 0.00 0.00 83 1012.4
20260903051049 69 79 1.0 3.0 0.00 0.00 0.00 83 1012.5
20260903050548 69 89 1.0 2.0 0.00 0.00 0.00 84 1012.5
20260903050047 69 62 1.0 3.0 0.00 0.00 0.00 83 1012.6
20260903045544 69 75 2.0 3.0 0.00 0.00 0.00 84 1012.5
20260903045044 69 77 2.0 5.0 0.00 0.00 0.00 86 1012.6
20260903044814 69 47 3.0 6.0 0.00 0.00 0.00 86 1012.5
20260903044310 69 50 3.0 6.0 0.00 0.00 0.00 87 1012.6
20260903043809 69 60 3.0 6.0 0.00 0.00 0.00 88 1012.6
20260903043038 68 58 3.0 4.0 0.00 0.00 0.00 90 1012.4
20260903042539 68 26 2.0 4.0 0.00 0.00 0.00 93 1012.5
20260903042038 67 11 1.0 3.0 0.00 0.00 0.00 94 1012.5
20260903041538 66 335 0.0 0.0 0.00 0.00 0.00 92 1012.6
20260903041044 66 334 0.0 0.0 0.00 0.00 0.00 93 1012.5
20260903041038 66 334 0.0 0.0 0.00 0.00 0.00 92 1012.6
20260903040039 66 334 0.0 0.0 0.00 0.00 0.00 93 1012.5
20260903035532 66 334 0.0 0.0 0.00 0.00 0.00 93 1012.5
20260903035027 66 334 0.0 0.0 0.00 0.00 0.00 93 1012.5
20260903034520 66 334 0.0 0.0 0.00 0.00 0.00 92 1012.5
20260903034014 67 334 0.0 0.0 0.00 0.00 0.00 93 1012.3
20260903033739 67 334 0.0 0.0 0.00 0.00 0.00 92 1012.5
20260903033002 67 334 0.0 0.0 0.00 0.00 0.00 92 1012.6
20260903032456 67 334 0.0 0.0 0.00 0.00 0.00 92 1012.6
20260903032221 67 334 0.0 0.0 0.00 0.00 0.00 92 1012.6
20260903031444 67 334 0.0 0.0 0.00 0.00 0.00 91 1012.5
20260903030938 67 334 0.0 0.0 0.00 0.00 0.00 91 1012.5
20260903030432 68 334 0.0 0.0 0.00 0.00 0.00 92 1012.5
20260903025926 68 334 0.0 0.0 0.00 0.00 0.00 92 1012.4
20260903025420 69 334 0.0 1.0 0.00 0.00 0.00 93 1012.4
20260903024914 69 334 0.0 1.0 0.00 0.00 0.00 92 1012.6
20260903024408 69 336 0.0 1.0 0.00 0.00 0.00 93 1012.6
20260903023905 69 342 0.0 1.0 0.00 0.00 0.00 94 1012.6
20260903023858 68 233 0.0 0.0 0.00 0.00 0.00 94 1012.6
20260903022850 68 233 0.0 0.0 0.00 0.00 0.00 94 1012.5
20260903022344 68 233 0.0 0.0 0.00 0.00 0.00 93 1012.4
20260903022109 69 233 0.0 0.0 0.00 0.00 0.00 93 1012.4
20260903021332 69 233 0.0 0.0 0.00 0.00 0.00 92 1012.3
20260903021057 69 233 0.0 0.0 0.00 0.00 0.00 91 1012.3
20260903020320 69 233 0.0 1.0 0.00 0.00 0.00 91 1012.4
20260903015814 69 233 0.0 1.0 0.00 0.00 0.00 90 1012.3
20260903015308 70 233 0.0 1.0 0.00 0.00 0.00 89 1012.4
20260903014802 70 65 0.0 1.0 0.00 0.00 0.00 88 1012.2
20260903014256 70 65 0.0 1.0 0.00 0.00 0.00 88 1012.3
20260903014248 69 32 0.0 0.0 0.00 0.00 0.00 86 1012.1
20260903013240 70 32 0.0 0.0 0.00 0.00 0.00 86 1012.2
20260903012734 70 32 0.0 0.0 0.00 0.00 0.00 85 1012.0
20260903012228 70 32 0.0 0.0 0.00 0.00 0.00 83 1011.9
20260903011722 71 32 0.0 0.0 0.00 0.00 0.00 83 1011.9
20260903011217 71 32 0.0 0.0 0.00 0.00 0.00 82 1011.9
20260903010710 71 32 0.0 1.0 0.00 0.00 0.00 81 1011.8
20260903010204 72 32 0.0 1.0 0.00 0.00 0.00 80 1011.7
20260903005658 72 32 0.0 0.0 0.00 0.00 0.00 79 1011.6
20260903005152 73 32 0.0 0.0 0.00 0.00 0.00 78 1011.7
20260903004645 74 32 0.0 1.0 0.00 0.00 0.00 76 1011.7
20260903004140 76 32 0.0 1.0 0.00 0.00 0.00 73 1011.7
20260903003634 76 32 0.0 1.0 0.00 0.00 0.00 71 1011.7
20260903003128 77 32 1.0 3.0 0.00 0.00 0.00 70 1011.7
20260903002622 78 28 2.0 3.0 0.00 0.00 0.00 70 1011.7
20260903002117 78 20 2.0 4.0 0.00 0.00 0.00 70 1011.6
20260903001610 78 29 3.0 4.0 0.00 0.00 0.00 68 1011.6
20260903001104 78 41 3.0 4.0 0.00 0.00 0.00 70 1011.5
20260903000829 79 38 3.0 4.0 0.00 0.00 0.00 65 1011.6
20260903000052 79 20 3.0 4.0 0.00 0.00 0.00 64 1011.6
20260902235546 79 16 3.0 4.0 0.00 0.00 0.00 64 1011.7
20260902235040 79 45 3.0 5.0 0.00 0.00 0.00 62 1011.8
20260902234535 79 3 3.0 5.0 0.00 0.00 0.00 62 1011.8
20260902234028 79 18 3.0 5.0 0.00 0.00 0.00 61 1011.7
20260902233522 79 11 3.0 4.0 0.00 0.00 0.00 60 1011.8
20260902233247 79 14 3.0 5.0 0.00 0.00 0.00 59 1011.9
20260902232741 79 13 3.0 5.0 0.00 0.00 0.00 61 1011.9
20260902232004 79 4 2.0 4.0 0.00 0.00 0.00 60 1011.9
20260902231458 79 355 1.0 4.0 0.00 0.00 0.00 61 1011.9
20260902230952 79 358 1.0 4.0 0.00 0.00 0.00 61 1012.0
20260902230446 80 345 1.0 4.0 0.00 0.00 0.00 60 1011.9
20260902225940 80 0 1.0 4.0 0.00 0.00 0.00 60 1012.0
20260902225705 80 53 0.0 3.0 0.00 0.00 0.00 59 1011.9
20260902224928 80 339 1.0 2.0 0.00 0.00 0.00 55 1011.9
20260902224422 80 350 0.0 2.0 0.00 0.00 0.00 53 1011.8
20260902223916 80 346 0.0 2.0 0.00 0.00 0.00 54 1011.8
20260902223410 80 19 0.0 2.0 0.00 0.00 0.00 55 1011.8
20260902222909 81 19 0.0 2.0 0.00 0.00 0.00 51 1011.8
20260902222409 81 354 0.0 2.0 0.00 0.00 0.00 53 1011.9
20260902222140 81 10 0.0 2.0 0.00 0.00 0.00 52 1011.9
20260902221406 81 9 0.0 1.0 0.00 0.00 0.00 51 1011.9
20260902220904 82 8 0.0 1.0 0.00 0.00 0.00 53 1011.8
20260902220401 82 34 0.0 1.0 0.00 0.00 0.00 53 1011.9
20260902220132 82 34 0.0 1.0 0.00 0.00 0.00 49 1012.0
20260902215359 82 1 0.0 1.0 0.00 0.00 0.00 49 1012.0
20260902214858 82 60 0.0 1.0 0.00 0.00 0.00 50 1012.0
20260902214629 82 60 0.0 1.0 0.00 0.00 0.00 48 1012.0
20260902213857 82 75 0.0 1.0 0.00 0.00 0.00 51 1012.1
20260902213627 82 82 0.0 1.0 0.00 0.00 0.00 50 1012.1
20260902212857 83 6 0.0 1.0 0.00 0.00 0.00 49 1012.0
20260902212355 83 6 0.0 1.0 0.00 0.00 0.00 48 1012.1
20260902211855 82 0 0.0 1.0 0.00 0.00 0.00 50 1012.1
20260902211354 82 0 0.0 0.0 0.00 0.00 0.00 49 1012.1
20260902210855 82 359 0.0 1.0 0.00 0.00 0.00 49 1012.1
20260902210351 82 358 0.0 1.0 0.00 0.00 0.00 50 1012.1
20260902205851 82 358 0.0 1.0 0.00 0.00 0.00 52 1012.2
20260902205350 82 5 0.0 1.0 0.00 0.00 0.00 51 1012.1
20260902204849 82 27 0.0 1.0 0.00 0.00 0.00 54 1012.1
20260902204351 82 1 0.0 1.0 0.00 0.00 0.00 53 1012.1
20260902203851 82 10 0.0 1.0 0.00 0.00 0.00 55 1012.1
20260902203349 82 15 0.0 1.0 0.00 0.00 0.00 53 1012.2
20260902202850 81 344 0.0 1.0 0.00 0.00 0.00 52 1012.2
20260902202351 81 6 0.0 1.0 0.00 0.00 0.00 52 1012.2
20260902201846 81 354 0.0 1.0 0.00 0.00 0.00 54 1012.4
20260902201346 81 12 0.0 1.0 0.00 0.00 0.00 56 1012.4
20260902200847 81 11 0.0 1.0 0.00 0.00 0.00 57 1012.4
20260902200346 81 11 0.0 2.0 0.00 0.00 0.00 59 1012.5
20260902195845 81 345 0.0 2.0 0.00 0.00 0.00 55 1012.5
20260902195345 81 3 1.0 3.0 0.00 0.00 0.00 56 1012.6
20260902194846 80 46 1.0 3.0 0.00 0.00 0.00 51 1012.6
20260902194617 80 21 1.0 3.0 0.00 0.00 0.00 52 1012.7
20260902193847 80 24 1.0 3.0 0.00 0.00 0.00 53 1012.9
20260902193616 80 29 2.0 3.0 0.00 0.00 0.00 55 1012.9
20260902192846 80 1 2.0 4.0 0.00 0.00 0.00 56 1012.9
20260902192345 80 5 1.0 4.0 0.00 0.00 0.00 57 1012.9
20260902191845 80 77 0.0 2.0 0.00 0.00 0.00 53 1013.0
20260902191346 80 34 0.0 1.0 0.00 0.00 0.00 55 1012.9
20260902190845 80 21 1.0 3.0 0.00 0.00 0.00 54 1013.0